Weather reports worldwide

Advertisment
Northolt, United Kingdom (3672): temperature & dewpoint: 09.10.2019 19:00:00 - 15.10.2019 19:00:00 (BST)Northolt, United Kingdom (3672): temperature -20cm & temperature -100cm: 09.10.2019 19:00:00 - 15.10.2019 19:00:00 (BST)Northolt, United Kingdom (3672): wind speed & gusts: 09.10.2019 19:00:00 - 15.10.2019 19:00:00 (BST)Northolt, United Kingdom (3672): wind direction: 09.10.2019 19:00:00 - 15.10.2019 19:00:00 (BST)Northolt, United Kingdom (3672): reduced air pressure: 09.10.2019 19:00:00 - 15.10.2019 19:00:00 (BST)Northolt, United Kingdom (3672): visibility: 09.10.2019 19:00:00 - 15.10.2019 19:00:00 (BST)Northolt, United Kingdom (3672): precipitation: 09.10.2019 19:00:00 - 15.10.2019 19:00:00 (BST)
Date & Time tt [°C] td [°C] tt -20cm [°C] tt -100cm [°C] ff [km/h] ff [kn] fx [km/h] fx [kn] dd ppp [hPa] vv [km] rr [mm]
15.10.2019 19:00:00 - - - - - - - - - - - -
15.10.2019 18:00:00 15,2 10,5 - - 13 7 - - SW 1004,3 10 0,0
15.10.2019 17:00:00 16,3 10,6 - - 15 8 - - SW 1004,0 10 0,0
15.10.2019 16:00:00 17,0 10,6 - - 8 4 - - WSW 1003,8 10 0,0
15.10.2019 15:00:00 16,1 11,5 - - 9 5 - - W 1003,9 10 0,0
15.10.2019 14:00:00 15,1 11,0 - - 5 3 - - W 1003,9 10 0,0
15.10.2019 13:00:00 14,8 11,2 - - 9 5 - - W 1004,5 10 0,0
15.10.2019 12:00:00 13,4 10,7 - - 9 5 - - W 1004,5 10 0,0
15.10.2019 11:00:00 12,7 10,3 - - 5 3 - - SSW 1004,4 10 0,0
15.10.2019 10:00:00 11,6 9,9 14,2 15,0 4 2 - - SW 1004,4 10 0,0
15.10.2019 09:00:00 11,1 9,9 - - 4 2 - - NW 1003,9 10 0,0
15.10.2019 08:00:00 10,5 9,7 - - 8 4 - - W 1003,6 7 0,0
15.10.2019 07:00:00 10,5 9,6 - - 11 6 - - WSW 1003,5 6 0,0
15.10.2019 06:00:00 10,7 9,5 - - 15 8 - - W 1003,1 10 0,0
15.10.2019 05:00:00 10,8 9,6 - - 13 7 - - WSW 1002,6 17 0,0
15.10.2019 04:00:00 11,0 9,6 - - 16 9 - - WSW 1002,4 10 0,0
15.10.2019 03:00:00 11,0 9,6 - - 16 9 - - WSW 1002,3 10 0,0
15.10.2019 02:00:00 11,1 9,8 - - 21 11 - - WSW 1002,5 30 0,0
15.10.2019 01:00:00 11,2 9,9 - - 28 15 - - WSW 1001,5 10 0,0
15.10.2019 00:00:00 13,4 12,2 - - 24 13 - - WSW 1000,3 10 0,0
14.10.2019 23:00:00 15,1 14,2 - - 18 10 - - SW 999,7 10 0,0
14.10.2019 22:00:00 15,3 14,8 - - 11 6 - - S 999,3 15 3,2
14.10.2019 21:00:00 15,4 14,7 - - 13 7 - - SSE 999,4 6 0,0
14.10.2019 20:00:00 15,0 14,3 - - 9 5 - - E 999,5 7 0,0
14.10.2019 19:00:00 14,9 13,9 - - 11 6 - - ESE 1000,6 9 0,0
14.10.2019 18:00:00 14,4 13,2 - - 8 4 - - ESE 1000,8 10 0,0
14.10.2019 17:00:00 14,2 12,6 - - 15 8 - - E 1001,7 10 0,0
14.10.2019 16:00:00 13,9 12,3 - - 16 9 - - ESE 1002,0 10 0,0
14.10.2019 15:00:00 13,3 11,3 - - 24 13 - - E 1002,8 10 0,0
14.10.2019 14:00:00 12,7 11,0 - - 22 12 - - E 1004,4 10 0,2
14.10.2019 13:00:00 12,6 10,7 - - 24 13 - - E 1005,5 29 0,0
14.10.2019 12:00:00 12,6 10,4 - - 18 10 - - E 1006,9 10 0,0
14.10.2019 11:00:00 12,2 10,9 - - 15 8 - - E 1007,9 10 0,0
14.10.2019 10:00:00 11,8 11,2 14,4 15,0 13 7 - - ENE 1008,9 10 0,4
14.10.2019 09:00:00 11,8 11,5 - - 9 5 - - E 1009,6 9 0,8
14.10.2019 08:00:00 11,5 11,2 - - 9 5 - - ESE 1009,7 10 0,8
14.10.2019 07:00:00 10,8 10,4 - - 5 3 - - ENE 1009,9 10 0,6
14.10.2019 06:00:00 10,5 10,1 - - 4 2 - - NE 1010,2 10 0,0
14.10.2019 05:00:00 9,9 9,5 - - 2 1 - - ESE 1010,8 10 0,0
14.10.2019 04:00:00 9,7 9,2 - - 4 2 - - E 1010,6 10 0,0
14.10.2019 03:00:00 9,5 9,0 - - 5 3 - - ESE 1010,8 30 0,0
14.10.2019 02:00:00 9,3 8,3 - - 4 2 - - ESE 1011,2 10 0,0
14.10.2019 01:00:00 9,9 8,8 - - 5 3 - - SSE 1011,1 35 0,0
14.10.2019 00:00:00 10,0 8,7 - - 5 3 - - SE 1011,2 10 0,0
13.10.2019 23:00:00 10,4 8,6 - - 5 3 - - SW 1010,9 10 0,0
13.10.2019 22:00:00 10,3 8,5 - - 9 5 - - WSW 1010,1 10 0,0
13.10.2019 21:00:00 11,2 8,2 - - 13 7 - - WSW 1009,3 10 0,0
13.10.2019 20:00:00 12,3 8,2 - - 15 8 - - WSW 1008,6 50 0,0
13.10.2019 19:00:00 12,6 9,0 - - 9 5 - - W 1007,4 10 0,0
13.10.2019 18:00:00 14,1 9,0 - - 26 14 50 27 W 1006,1 10 0,0
13.10.2019 17:00:00 15,4 10,3 - - 28 15 46 25 WSW 1004,7 10 0,0
13.10.2019 16:00:00 15,7 12,3 - - 26 14 - - WSW 1003,2 10 0,0
13.10.2019 15:00:00 15,4 12,5 - - 22 12 - - WSW 1002,7 10 0,0
13.10.2019 14:00:00 15,4 13,1 - - 22 12 46 25 SW 1001,7 40 0,0
13.10.2019 13:00:00 15,7 13,6 - - 29 16 48 26 WSW 1000,9 10 0,6
13.10.2019 12:00:00 16,2 14,8 - - 28 15 46 25 SW 999,9 12 0,6
13.10.2019 11:00:00 16,7 14,1 - - 24 13 - - SSW 999,4 10 0,0
13.10.2019 10:00:00 15,8 14,4 14,5 15,0 16 9 - - S 999,8 10 0,0
13.10.2019 09:00:00 14,9 14,4 - - 15 8 - - S 1000,2 10 0,0
13.10.2019 08:00:00 13,2 13,0 - - 11 6 - - SSE 1000,9 7 0,0
13.10.2019 07:00:00 12,1 11,9 - - 11 6 - - ESE 1001,4 5 0,0
13.10.2019 06:00:00 11,5 11,3 - - 9 5 - - ENE 1002,6 3,0 0,4
13.10.2019 05:00:00 11,3 11,0 - - 9 5 - - E 1003,6 5 0,4
13.10.2019 04:00:00 11,2 10,9 - - 8 4 - - ENE 1004,9 2,5 0,6
13.10.2019 03:00:00 11,0 10,8 - - 9 5 - - E 1005,4 2,9 0,4
13.10.2019 02:00:00 11,0 10,7 - - 9 5 - - E 1006,1 2,5 0,8
13.10.2019 01:00:00 10,9 10,6 - - 5 3 - - ESE 1007,0 2,5 1,0
13.10.2019 00:00:00 11,1 10,8 - - 9 5 - - SE 1007,5 2,9 0,8
12.10.2019 23:00:00 11,2 10,9 - - 8 4 - - SE 1007,8 3,3 0,8
12.10.2019 22:00:00 11,3 11,0 - - 9 5 - - SE 1008,1 5 1,8
12.10.2019 21:00:00 11,6 11,3 - - 4 2 - - S 1008,6 3,0 1,0
12.10.2019 20:00:00 11,7 11,2 - - 5 3 - - S 1008,6 5 0,4
12.10.2019 19:00:00 11,8 11,2 - - 9 5 - - S 1008,2 10 0,0
12.10.2019 18:00:00 12,0 11,5 - - 8 4 - - S 1007,9 10 0,4
12.10.2019 17:00:00 12,1 11,5 - - 9 5 - - S 1008,4 10 0,8
12.10.2019 16:00:00 12,5 11,7 - - 8 4 - - S 1008,8 10 0,2
12.10.2019 15:00:00 12,4 11,5 - - 9 5 - - S 1008,7 10 0,4
12.10.2019 14:00:00 12,7 11,7 - - 8 4 - - S 1008,6 15 0,2
12.10.2019 13:00:00 12,4 11,5 - - 5 3 - - SW 1009,1 10 0,6
12.10.2019 12:00:00 12,0 11,1 - - 8 4 - - SW 1009,4 10 0,4
12.10.2019 11:00:00 11,6 10,9 - - 9 5 - - SW 1009,1 10 0,6
12.10.2019 10:00:00 11,4 10,6 14,7 15,2 8 4 - - SW 1008,6 10 0,4
12.10.2019 09:00:00 11,2 10,4 - - 5 3 - - SW 1008,4 15 0,2
12.10.2019 08:00:00 10,8 9,9 - - 8 4 - - WSW 1007,7 10 0,0
12.10.2019 07:00:00 10,8 10,2 - - 5 3 - - WSW 1007,4 10 0,0
12.10.2019 06:00:00 10,7 10,2 - - 4 2 - - SW 1007,1 10 0,0
12.10.2019 05:00:00 10,7 10,2 - - 5 3 - - SW 1006,9 10 0,0
12.10.2019 04:00:00 10,4 9,8 - - 8 4 - - SW 1006,7 29 0,0
12.10.2019 03:00:00 10,7 10,1 - - 9 5 - - W 1007,0 10 0,2
12.10.2019 02:00:00 10,9 10,1 - - 11 6 - - WSW 1007,1 8 0,0
12.10.2019 01:00:00 11,4 10,5 - - 8 4 - - WSW 1006,8 16 0,2
12.10.2019 00:00:00 12,2 11,3 - - 11 6 - - WNW 1006,6 9 0,2
11.10.2019 23:00:00 12,3 11,1 - - 13 7 - - WSW 1006,5 19 0,2
11.10.2019 22:00:00 12,0 11,2 - - 9 5 - - WSW 1005,8 10 0,8
11.10.2019 21:00:00 12,5 11,2 - - 11 6 - - WSW 1005,4 9 0,8
11.10.2019 20:00:00 13,7 13,0 - - 16 9 54 29 W 1005,6 3,5 2,4
11.10.2019 19:00:00 16,1 13,9 - - 24 13 - - WSW 1004,9 1,2 0,4
11.10.2019 18:00:00 16,7 13,6 - - 28 15 48 26 SW 1004,5 10 0,0
11.10.2019 17:00:00 17,0 13,7 - - 29 16 50 27 SW 1004,2 10 0,0
11.10.2019 16:00:00 16,6 13,7 - - 29 16 54 29 SW 1004,4 10 0,0
11.10.2019 15:00:00 16,6 13,8 - - 28 15 48 26 SW 1004,5 10 0,0
11.10.2019 14:00:00 16,7 13,3 - - 28 15 52 28 WSW 1004,9 10 0,0
11.10.2019 13:00:00 16,5 13,1 - - 31 17 48 26 WSW 1005,6 10 0,0
11.10.2019 12:00:00 16,0 13,2 - - 29 16 50 27 SW 1006,0 10 0,0
11.10.2019 11:00:00 15,6 14,1 - - 26 14 - - SW 1006,1 10 0,2
11.10.2019 10:00:00 15,1 13,8 14,4 15,2 22 12 - - SW 1006,5 10 0,2
11.10.2019 09:00:00 15,0 13,9 - - 26 14 - - SW 1006,6 10 0,2
11.10.2019 08:00:00 15,0 13,6 - - 24 13 - - SW 1006,5 10 0,2
11.10.2019 07:00:00 15,2 13,5 - - 24 13 - - SW 1006,9 10 0,0
11.10.2019 06:00:00 14,9 13,8 - - 22 12 - - SW 1007,2 12 0,0
11.10.2019 05:00:00 14,7 13,9 - - 21 11 - - SW 1008,0 7 5,8
11.10.2019 04:00:00 14,9 13,6 - - 22 12 - - SW 1008,8 3,1 1,0
11.10.2019 03:00:00 15,5 13,4 - - 22 12 - - SW 1009,0 10 0,0
11.10.2019 02:00:00 16,2 12,9 - - 26 14 - - WSW 1009,4 28 0,0
11.10.2019 01:00:00 16,0 13,0 - - 28 15 46 25 WSW 1009,5 18 0,0
11.10.2019 00:00:00 16,0 13,0 - - 24 13 50 27 SW 1009,7 29 0,0
10.10.2019 23:00:00 16,1 12,6 - - 26 14 - - SW 1010,0 10 0,0
10.10.2019 22:00:00 15,9 12,6 - - 22 12 - - SW 1010,1 10 0,0
10.10.2019 21:00:00 15,1 12,7 - - 24 13 - - SW 1010,6 27 0,0
10.10.2019 20:00:00 14,3 12,2 - - 24 13 - - SW 1010,9 8 0,0
10.10.2019 19:00:00 15,1 10,9 - - 21 11 - - SW 1011,3 25 0,0
10.10.2019 18:00:00 15,6 10,1 - - 22 12 - - SW 1011,5 10 0,0
10.10.2019 17:00:00 15,9 8,9 - - 26 14 - - WSW 1011,7 10 0,0
10.10.2019 16:00:00 16,0 8,0 - - 24 13 - - WSW 1012,0 10 0,0
10.10.2019 15:00:00 16,1 8,8 - - 22 12 - - WSW 1012,2 10 0,0
10.10.2019 14:00:00 16,0 8,6 - - 26 14 - - WSW 1012,7 10 0,0
10.10.2019 13:00:00 15,9 9,0 - - 28 15 - - W 1012,8 10 0,0
10.10.2019 12:00:00 15,2 9,5 - - 26 14 - - W 1013,0 10 0,0
10.10.2019 11:00:00 13,9 9,1 - - 26 14 - - WSW 1013,0 10 0,0
10.10.2019 10:00:00 12,4 9,1 14,2 15,2 24 13 - - W 1012,7 10 0,0
10.10.2019 09:00:00 9,9 8,1 - - 15 8 - - W 1012,2 10 0,0
10.10.2019 08:00:00 8,8 7,4 - - 15 8 - - WSW 1011,3 10 0,0
10.10.2019 07:00:00 8,4 7,2 - - 15 8 - - WSW 1010,8 10 0,0
10.10.2019 06:00:00 8,2 7,1 - - 15 8 - - WSW 1010,0 10 0,0
10.10.2019 05:00:00 8,4 7,1 - - 18 10 - - WSW 1009,5 10 0,0
10.10.2019 04:00:00 8,4 7,2 - - 15 8 - - W 1009,1 10 0,0
10.10.2019 03:00:00 8,3 7,3 - - 16 9 - - WSW 1008,6 30 0,0
10.10.2019 02:00:00 8,7 7,6 - - 16 9 - - W 1007,7 10 0,0
10.10.2019 01:00:00 8,6 7,5 - - 15 8 - - W 1007,5 10 0,0
10.10.2019 00:00:00 8,9 7,6 - - 13 7 - - W 1007,0 10 0,0
09.10.2019 23:00:00 9,5 7,5 - - 16 9 - - W 1006,3 10 0,0
09.10.2019 22:00:00 10,0 7,9 - - 21 11 - - WSW 1005,9 40 0,0
09.10.2019 21:00:00 10,4 7,3 - - 18 10 - - WSW 1005,8 50 0,0
09.10.2019 20:00:00 10,9 7,6 - - 15 8 - - SW 1005,5 10 0,0
09.10.2019 19:00:00 11,5 7,0 - - 16 9 - - WSW 1005,4 10 0,0

tt = temperature
td = dewpoint
tt -20cm = temperature -20cm
tt -100cm = temperature -100cm
ff = wind speed
fx = gusts
dd = wind direction
ppp = reduced air pressure
vv = visibility
rr = precipitation

Next stations